Home   Weather   Bordeaux   Past weeks

Flag for France Past Weather in Bordeaux, Aquitaine, France — Yesterday and Last 2 Weeks

Now
75 °F

Clear.


Feels Like: 77 °F
Forecast: 63 / 76 °F
Wind: 8 mph from North

Location: Bordeaux / Merignac

Current Time: Aug 17, 2017 at 9:35:47 pm

Latest Report: Aug 17, 2017 at 9:00 pm


Visibility: 10 mi

Pressure: 30.09 "Hg

Humidity: 65%

Dew Point: 63 °F

Location of BordeauxLocation

Past Weather in Bordeaux — Graph

°F

Bordeaux Temperature Yesterday

Maximum temperature yesterday: 79 °F (at 3:30 pm)
Minimum temperature yesterday: 59 °F (at 5:30 am)
Average temperature yesterday: 68 °F

High & Low Weather Summary for the Past Weeks

 TemperatureHumidityPressure
High95 °F (Aug 14, 5:30 pm)100% (Aug 17, 8:00 am)30.27 "Hg (Aug 17, 8:00 am)
Low54 °F (Aug 12, 3:30 am)28% (Aug 6, 4:30 pm)29.86 "Hg (Aug 14, 5:30 pm)
Average69 °F69%30.11 "Hg
* Reported Aug 2 8:00 pm — Aug 17 8:30 pm, Bordeaux. Weather by CustomWeather, © 2017

Note: Actual official high and low records may vary slightly from our data, if they occured in-between our weather recording intervals... More about our weather records

Advertising

Bordeaux Weather History for the Previous 24 Hours

Scroll right to see more
 ConditionsComfort  
Time TempWeatherWind HumidityBarometerVisibility
8:30 pm
Thu, Aug 17
77 °FSunny.8 mph61%30.09 "Hg10 mi
8:00 pm79 °FSunny.10 mph58%30.09 "Hg10 mi
7:30 pm81 °FPartly sunny.12 mph54%30.09 "HgN/A
7:00 pm82 °FPartly sunny.8 mph51%30.09 "HgN/A
6:30 pm82 °FScattered clouds.5 mph51%30.09 "HgN/A
6:00 pm82 °FPassing clouds.3 mph51%30.09 "HgN/A
5:30 pm82 °FPassing clouds.5 mph51%30.09 "HgN/A
5:00 pm81 °FPartly sunny.6 mph54%30.12 "HgN/A
4:30 pm79 °FPartly sunny.5 mph58%30.12 "HgN/A
4:00 pm79 °FPassing clouds.5 mph58%30.12 "HgN/A
3:30 pm79 °FOvercast.5 mph58%30.15 "HgN/A
3:00 pm79 °FMostly cloudy.9 mph58%30.15 "HgN/A
2:30 pm79 °FOvercast.7 mph58%30.15 "HgN/A
2:00 pm77 °FOvercast.7 mph61%30.15 "HgN/A
1:30 pm79 °FOvercast.6 mph54%30.15 "HgN/A
1:00 pm79 °FPartly sunny.5 mph58%30.15 "HgN/A
12:30 pm79 °FPartly sunny.6 mph58%30.15 "HgN/A
12:00 pm75 °FPartly sunny.5 mph61%30.15 "HgN/A
11:30 am73 °FPartly sunny.3 mph65%30.15 "HgN/A
11:00 am73 °FPartly sunny.6 mph65%30.18 "HgN/A
10:30 am72 °FBroken clouds.6 mph73%30.18 "HgN/A
10:00 am70 °FPassing clouds.3 mph83%30.18 "HgN/A
9:30 am68 °FSunny.3 mph88%30.18 "Hg10 mi
9:00 am64 °FSunny.2 mph94%30.15 "Hg10 mi
8:30 am63 °FSunny.3 mph94%30.15 "Hg10 mi
8:00 am61 °FSunny.No wind100%30.15 "Hg10 mi
7:30 am59 °FLight fog.No wind94%30.15 "HgN/A
7:00 am59 °FLight fog.2 mph94%30.15 "HgN/A
6:30 am59 °FLight fog.1 mph94%30.15 "HgN/A
6:00 am59 °FLight fog.No wind94%30.15 "HgN/A
5:30 am59 °FLight fog.No wind94%30.15 "HgN/A
5:00 am59 °FClear.No wind94%30.15 "Hg10 mi
4:30 am59 °FClear.1 mph94%30.15 "HgN/A
4:00 am61 °FLight fog.2 mph94%30.15 "HgN/A
3:30 am61 °FClear.1 mph94%30.15 "HgN/A
3:00 am61 °FLight fog.3 mph94%30.15 "HgN/A
2:00 am63 °FClear.1 mph88%30.15 "Hg10 mi
1:30 am63 °FClear.3 mph88%30.18 "Hg10 mi
1:00 am63 °FClear.2 mph94%30.18 "HgN/A
12:30 am64 °FClear.No wind88%30.18 "Hg10 mi
12:00 am64 °FClear.1 mph88%30.18 "Hg10 mi
11:30 pm
Wed, Aug 16
66 °FClear.2 mph83%30.18 "Hg10 mi
11:00 pm66 °FClear.3 mph83%30.21 "Hg10 mi
10:30 pm68 °FPassing clouds.5 mph78%30.18 "HgN/A
10:00 pm68 °FPassing clouds.5 mph78%30.18 "HgN/A
9:30 pm70 °FClear.5 mph69%30.18 "Hg10 mi
9:00 pm72 °FSunny.7 mph65%30.18 "Hg10 mi
Weather by CustomWeather, © 2017

See weather overviewHow to use our weather pages